Current weather by "City, St" or "zip code"  
 

Current Conditions: Chisholm-Hibbing Airport, MN

Fair


26.0 F

Last Updated on Sep 18 2020, 12:53 am CDT
Humidity: 92%
Wind Speed: N 0.0 mph
Barometer 30.37 in
Dewpoint: 24.1 F
Visibility: 10.00 mi
Precip: --
Heat Index: NA
Wind Chill: NA
Current conditions at:

Chisholm-Hibbing Airport, MN (KHIB)

Lat: 47.38039 Lon: 92.83245

Local Radar Image active severe weather and emergency alerts image image weather storm and storm spotter reports image weather observation monitoring service image
Local
Radar
Active
Alerts
Storm Reports Obs
Monitoring

Sign-up For Email & Text Message Weather Alert Notification Services



Advertise Here

Observation History for Chisholm-Hibbing Airport, MN


Time Wind
(mph)
Vis
(mi)
Weather Precip (in) Temperature (F) Relative
Humidity
Wind
Chill
(F)
Heat
Index
(F)
Pressure
Air Dwpt altimeter
(in)
sea level
(mb)
Rmks
12:53 am CDT N 0.0 10.00 Fair -- 26.0 24.1 92% NA NA 30.37 1030.2
11:53 pm CDT N 0.0 10.00 Fair -- 28.0 26.1 92% NA NA 30.37 1029.9
10:53 pm CDT NW 3.5 10.00 Fair -- 29.0 27.0 92% NA NA 30.36 1029.6
9:53 pm CDT NW 3.5 10.00 Fair -- 29.0 28.0 96% NA NA 30.34 1029.3
8:53 pm CDT NW 3.5 10.00 Fair -- 34.0 30.0 85% NA NA 30.33 1028.7
7:53 pm CDT NW 4.6 10.00 Overcast -- 37.0 32.0 82% 33 NA 30.31 1028.3
6:53 pm CDT NW 4.6 10.00 Overcast -- 47.0 28.0 48% 45 NA 30.30 1027.6
5:53 pm CDT N 8.1 10.00 Mostly Cloudy -- 51.0 24.1 35% 48 NA 30.29 1027.3
4:53 pm CDT N 8.1 10.00 Overcast Trace 51.0 24.1 35% 48 NA 30.28 1027.1
3:53 pm CDT W 6.9 10.00 Mostly Cloudy Trace 52.0 24.1 34% 50 NA 30.28 1027.1
2:53 pm CDT N 5.8 10.00 Light Rain Trace 53.0 23.0 31% 51 NA 30.30 1027.4
1:53 pm CDT N 15.0 G 18.4 10.00 Light Rain Trace 53.0 24.1 32% 48 NA 30.30 1027.6
12:53 pm CDT NW 9.2 10.00 Fair -- 51.0 27.0 39% 48 NA 30.31 1027.9
11:53 am CDT N 6.9 10.00 Fair -- 50.0 28.0 43% 47 NA 30.33 1028.3
10:53 am CDT 3.5 10.00 Fair -- 46.0 27.0 47% NA NA 30.32 1028.3
9:53 am CDT N 4.6 10.00 Fair -- 45.0 28.0 52% 43 NA 30.32 1028.0
8:53 am CDT NW 3.5 10.00 Fair -- 40.0 34.0 79% NA NA 30.31 1027.8
7:53 am CDT N 0.0 10.00 Fair -- 30.0 28.0 92% NA NA 30.30 1027.6
6:53 am CDT NW 3.5 10.00 Fair -- 26.0 24.1 92% NA NA 30.29 1027.3
5:53 am CDT NW 4.6 10.00 Fair -- 26.0 24.1 92% 20 NA 30.27 1026.7
4:53 am CDT NW 3.5 10.00 Fair -- 27.0 25.0 92% NA NA 30.26 1026.0
3:53 am CDT NW 3.5 10.00 Fair -- 26.0 25.0 96% NA NA 30.25 1025.7
2:53 am CDT NW 3.5 10.00 Fair -- 26.0 25.0 96% NA NA 30.25 1025.5
1:53 am CDT NW 3.5 10.00 Fair -- 28.0 27.0 96% NA NA 30.24 1025.4

Regional Weather Observation


Cook Municipal Airport, MN (KCQM)

Fair
28.0 F

Bigfork Municipal Airport, MN (KFOZ)

Fair
27.0 F

Eveleth-Virginia Municipal Airport, MN (KEVM)

Fair
27.0 F

Grand Rapids, Grand Rapids/Itasca County Airport-Gordon Newstrom Field, MN (KGPZ)

Fair
32.0 F

Orr Regional Airport, MN (KORB)

NULL
27.0 F

Crane Lake - Scotts Seaplane Base, MN (KCDD)

Fair
27.0 F